EW8167 Weather Reports


time (UTC)temp
C
wind
direction
speed
KPH
gust
KPH
rain 1hr
cm
rain 24hr
cm
rain mn
cm
humidity
%
barometer
mb
20260506041538 14 144 1.6 9.7 0.00 0.00 0.00 76 1017.9
20260506040140 14 145 1.6 9.7 0.00 0.00 0.00 77 1017.8
20260506034536 14 138 3.2 6.4 0.00 0.00 0.00 77 1017.6
20260506033034 15 118 3.2 6.4 0.00 0.00 0.00 76 1017.2
20260506031540 15 160 1.6 4.8 0.00 0.00 0.00 76 1017.1
20260506030132 15 167 3.2 6.4 0.00 0.00 0.00 76 1016.9
20260506024552 15 152 3.2 9.7 0.00 0.00 0.00 76 1016.7
20260506023104 15 217 3.2 8.0 0.00 0.00 0.00 75 1016.7
20260506021610 15 232 4.8 9.7 0.00 0.00 0.00 75 1016.6
20260506020150 15 186 1.6 8.0 0.00 0.00 0.00 74 1016.6
20260506014547 16 219 1.6 8.0 0.00 0.00 0.00 74 1016.6
20260506013057 16 169 1.6 6.4 0.00 0.00 0.00 74 1016.6
20260506011601 16 196 4.8 12.9 0.00 0.00 0.00 73 1016.5
20260506010145 16 303 1.6 4.8 0.00 0.00 0.00 72 1016.5
20260506004543 15 178 0.0 8.0 0.00 0.00 0.00 73 1016.5
20260506003043 15 201 3.2 12.9 0.00 0.00 0.00 74 1016.5
20260506001546 16 240 4.8 12.9 0.00 0.00 0.00 73 1016.4
20260506000141 16 244 8.0 14.5 0.00 0.00 0.00 68 1016.3
20260505234539 17 103 0.0 6.4 0.00 0.00 0.00 64 1016.3
20260505233039 17 355 1.6 8.0 0.00 0.00 0.00 64 1016.3
20260505231549 17 331 1.6 9.7 0.00 0.00 0.00 64 1016.3
20260505230137 17 5 4.8 12.9 0.00 0.00 0.00 64 1016.4
20260505224536 17 360 4.8 11.3 0.00 0.00 0.00 64 1016.4
20260505223035 17 355 3.2 12.9 0.00 0.00 0.00 64 1016.5
20260505221536 17 340 6.4 16.1 0.00 0.00 0.00 63 1016.7
20260505220134 17 5 9.7 16.1 0.00 0.00 0.00 62 1016.7
20260505214559 18 341 0.0 14.5 0.00 0.00 0.00 62 1016.6
20260505213052 17 5 4.8 9.7 0.00 0.00 0.00 63 1016.7
20260505211550 17 51 4.8 16.1 0.00 0.00 0.00 64 1016.9
20260505210150 17 342 8.0 16.1 0.00 0.00 0.00 64 1016.9
20260505204551 17 307 1.6 14.5 0.00 0.00 0.00 65 1016.9
20260505203106 16 355 6.4 16.1 0.00 0.00 0.00 65 1017.0
20260505201554 16 355 8.0 16.1 0.00 0.00 0.00 65 1017.0
20260505200145 16 323 6.4 20.9 0.00 0.00 0.00 68 1017.0
20260505194551 16 348 4.8 14.5 0.00 0.00 0.00 68 1017.2
20260505193051 15 311 9.7 17.7 0.00 0.00 0.00 68 1017.3
20260505191552 15 310 8.0 17.7 0.00 0.00 0.00 68 1017.2
20260505190141 15 360 6.4 14.5 0.00 0.00 0.00 68 1017.2
20260505184547 15 344 4.8 9.7 0.00 0.00 0.00 68 1017.2
20260505183044 15 351 1.6 9.7 0.00 0.00 0.00 69 1017.1
20260505181544 15 15 4.8 9.7 0.00 0.00 0.00 68 1017.1
20260505180137 15 344 1.6 8.0 0.00 0.00 0.00 68 1016.9
20260505174545 15 329 1.6 12.9 0.00 0.00 0.00 69 1016.8
20260505173039 14 311 3.2 8.0 0.00 0.00 0.00 69 1016.6
20260505171535 14 355 3.2 6.4 0.00 0.00 0.00 71 1016.7
20260505170132 13 29 0.0 4.8 0.00 0.00 0.00 73 1016.6
20260505164554 13 328 0.0 3.2 0.00 0.00 0.00 75 1016.7
20260505163052 13 40 1.6 6.4 0.00 0.00 0.00 75 1016.6
20260505161556 12 5 3.2 8.0 0.00 0.00 0.00 75 1016.5
20260505160147 12 19 1.6 6.4 0.00 0.00 0.00 75 1016.3
20260505153056 12 342 3.2 8.0 0.00 0.00 0.00 76 1016.4
20260505151558 12 298 1.6 8.0 0.00 0.00 0.00 77 1016.2
20260505150144 12 355 1.6 9.7 0.00 0.00 0.00 78 1016.1
20260505140140 11 321 0.0 0.0 0.00 0.00 0.00 80 1015.7
20260505130134 11 329 0.0 6.4 0.00 0.00 0.00 77 1015.4
20260505124640 11 355 1.6 4.8 0.00 0.00 0.00 77 1015.5
20260505123037 11 331 0.0 6.4 0.00 0.00 0.00 76 1015.5
20260505121536 11 343 3.2 8.0 0.00 0.00 0.00 75 1015.7
20260505120132 11 9 3.2 6.4 0.00 0.00 0.00 75 1015.7
20260505114551 11 14 3.2 8.0 0.00 0.00 0.00 75 1015.7
20260505113050 11 355 1.6 9.7 0.00 0.00 0.00 75 1015.6
20260505111549 11 351 6.4 12.9 0.00 0.00 0.00 76 1015.5
20260505110146 11 9 3.2 12.9 0.00 0.00 0.00 78 1015.6
20260505101553 12 338 4.8 17.7 0.00 0.00 0.00 78 1015.4
20260505100143 12 341 4.8 14.5 0.00 0.00 0.00 78 1015.4
20260505094543 12 355 4.8 19.3 0.00 0.00 0.00 77 1015.6
20260505093043 12 5 6.4 16.1 0.00 0.00 0.00 77 1015.6
20260505091541 12 10 4.8 12.9 0.00 0.00 0.00 78 1015.7
20260505090138 12 355 6.4 16.1 0.00 0.00 0.00 78 1015.8
20260505084548 12 360 8.0 16.1 0.00 0.00 0.00 78 1015.9
20260505083039 12 5 6.4 14.5 0.00 0.00 0.00 78 1015.8
20260505081543 12 339 1.6 14.5 0.00 0.00 0.00 78 1015.9
20260505080134 12 347 4.8 9.7 0.00 0.00 0.00 78 1016.0
20260505074555 12 329 3.2 9.7 0.00 0.00 0.00 78 1016.1
20260505073057 12 355 3.2 8.0 0.00 0.00 0.00 78 1016.0
20260505071554 13 328 4.8 9.7 0.00 0.00 0.00 78 1015.8
20260505070149 13 339 4.8 8.0 0.00 0.00 0.00 77 1015.7
20260505064547 13 360 3.2 8.0 0.00 0.00 0.00 76 1015.7
20260505063047 13 9 4.8 12.9 0.00 0.00 0.00 76 1015.7
20260505061548 13 12 3.2 8.0 0.00 0.00 0.00 75 1015.6
20260505060145 13 360 3.2 8.0 0.00 0.00 0.00 74 1015.8
20260505054545 13 311 3.2 6.4 0.00 0.00 0.00 73 1015.9
20260505053046 13 5 1.6 4.8 0.00 0.00 0.00 71 1016.1
20260505051542 13 340 3.2 6.4 0.00 0.00 0.00 70 1016.1
20260505050141 13 347 1.6 4.8 0.00 0.00 0.00 68 1016.1